DW3201 Weather Reports


time (UTC)temp
C
wind
direction
speed
KPH
gust
KPH
rain 1hr
cm
rain 24hr
cm
rain mn
cm
humidity
%
barometer
mb
20260507201554 12 0 1.6 11.3 0.00 0.00 0.00 47 1008.8
20260507200108 12 9 0.0 12.9 0.00 0.00 0.00 53 1009.2
20260507194557 12 235 1.6 9.7 0.00 0.00 0.00 48 1009.8
20260507193131 13 285 3.2 12.9 0.00 0.00 0.00 41 1009.4
20260507191600 14 249 4.8 12.9 0.00 0.00 0.00 36 1009.3
20260507190058 14 248 9.7 24.1 0.00 0.00 0.00 34 1009.1
20260507184558 14 245 11.3 25.7 0.00 0.00 0.00 35 1009.5
20260507183103 13 249 9.7 24.1 0.00 0.00 0.00 36 1009.7
20260507181556 13 221 3.2 19.3 0.00 0.00 0.00 37 1010.1
20260507180057 13 242 8.0 14.5 0.00 0.00 0.00 37 1010.3
20260507174608 12 240 6.4 14.5 0.00 0.00 0.00 38 1010.6
20260507173131 12 226 6.4 12.9 0.00 0.00 0.00 37 1010.8
20260507171601 13 262 4.8 17.7 0.00 0.00 0.00 36 1011.1
20260507170055 13 280 6.4 20.9 0.00 0.00 0.00 36 1011.4
20260507164605 13 131 1.6 9.7 0.00 0.00 0.00 40 1011.5
20260507163058 12 251 1.6 9.7 0.00 0.00 0.00 38 1011.8
20260507161616 12 174 3.2 9.7 0.00 0.00 0.00 40 1011.9
20260507160118 11 101 1.6 11.3 0.00 0.00 0.00 40 1012.2
20260507154600 10 77 1.6 8.0 0.00 0.00 0.00 44 1012.5
20260507153055 10 104 3.2 8.0 0.00 0.00 0.00 45 1012.7
20260507151553 10 256 1.6 12.9 0.00 0.00 0.00 45 1012.9
20260507150059 8 240 6.4 12.9 0.00 0.00 0.00 45 1013.2
20260507144600 8 261 3.2 8.0 0.00 0.00 0.00 46 1013.5
20260507143100 7 259 4.8 11.3 0.00 0.00 0.00 48 1013.7
20260507141605 7 264 1.6 11.3 0.00 0.00 0.00 51 1014.1
20260507140101 6 255 4.8 9.7 0.00 0.00 0.00 52 1014.3
20260507134603 6 232 6.4 9.7 0.00 0.00 0.00 53 1014.4
20260507133052 6 242 1.6 6.4 0.00 0.00 0.00 59 1014.4
20260507131556 5 252 3.2 6.4 0.00 0.00 0.00 63 1014.5
20260507130053 3 283 1.6 6.4 0.00 0.00 0.00 66 1014.5
20260507124554 3 240 3.2 8.0 0.00 0.00 0.00 70 1014.4
20260507123055 2 273 0.0 3.2 0.00 0.00 0.00 76 1014.3
20260507121557 1 0 0.0 0.0 0.00 0.00 0.00 81 1014.2
20260507120053 1 0 0.0 1.6 0.00 0.00 0.00 80 1014.0
20260507114559 0 266 0.0 1.6 0.00 0.00 0.00 82 1013.9
20260507113055 0 0 0.0 0.0 0.00 0.00 0.00 81 1013.8
20260507111559 0 0 0.0 4.8 0.00 0.00 0.00 79 1013.7
20260507110055 0 279 1.6 4.8 0.00 0.00 0.00 82 1013.6
20260507104554 -1 0 0.0 0.0 0.00 0.00 0.00 85 1013.5
20260507103053 -1 0 0.0 0.0 0.00 0.00 0.00 86 1013.5
20260507101611 -1 0 0.0 0.0 0.00 0.00 0.00 88 1013.5
20260507100055 -1 269 0.0 0.0 0.00 0.00 0.00 87 1013.5
20260507094556 0 0 0.0 0.0 0.00 0.00 0.00 86 1013.5
20260507093054 0 0 0.0 0.0 0.00 0.00 0.00 82 1013.5
20260507091551 0 0 0.0 0.0 0.00 0.00 0.00 82 1013.5
20260507090052 0 0 0.0 0.0 0.00 0.00 0.00 84 1013.5
20260507084553 0 0 0.0 0.0 0.00 0.00 0.00 80 1013.6
20260507083052 0 0 0.0 1.6 0.00 0.00 0.00 76 1013.6
20260507081551 0 0 0.0 0.0 0.00 0.00 0.00 74 1013.6
20260507080052 0 0 0.0 0.0 0.00 0.00 0.00 73 1013.6
20260507074556 0 0 0.0 1.6 0.00 0.00 0.00 72 1013.5
20260507073053 0 266 1.6 1.6 0.00 0.00 0.00 73 1013.8
20260507071553 0 0 0.0 1.6 0.00 0.00 0.00 71 1013.8
20260507070054 1 263 0.0 0.0 0.00 0.00 0.00 72 1013.9
20260507064606 1 0 0.0 1.6 0.00 0.00 0.00 72 1014.0
20260507063056 1 0 0.0 0.0 0.00 0.00 0.00 72 1014.2
20260507061553 2 0 0.0 1.6 0.00 0.00 0.00 71 1014.4
20260507060054 2 0 0.0 1.6 0.00 0.00 0.00 65 1014.4
20260507054604 2 265 1.6 4.8 0.00 0.00 0.00 64 1014.5
20260507053051 3 269 0.0 3.2 0.00 0.00 0.00 64 1014.5
20260507051551 2 269 1.6 3.2 0.00 0.00 0.00 65 1014.5
20260507050052 2 235 1.6 3.2 0.00 0.00 0.00 66 1014.6
20260507044555 2 252 0.0 1.6 0.00 0.00 0.00 66 1014.6
20260507043100 2 262 0.0 1.6 0.00 0.00 0.00 69 1014.6
20260507041603 2 0 0.0 1.6 0.00 0.00 0.00 66 1014.5
20260507040057 3 0 0.0 0.0 0.00 0.00 0.00 66 1014.6
20260507034557 3 0 0.0 0.0 0.00 0.00 0.00 62 1014.6
20260507033053 4 0 0.0 1.6 0.00 0.00 0.00 59 1014.7
20260507031552 5 274 0.0 1.6 0.00 0.00 0.00 56 1014.8
20260507030058 5 269 0.0 4.8 0.00 0.00 0.00 53 1014.9
20260507024553 6 283 3.2 4.8 0.00 0.00 0.00 50 1014.7
20260507023108 6 276 3.2 8.0 0.00 0.00 0.00 50 1014.5
20260507021557 6 279 1.6 11.3 0.00 0.00 0.00 49 1014.3
20260507020054 7 290 6.4 14.5 0.00 0.00 0.00 47 1014.2
20260507014609 7 290 3.2 12.9 0.00 0.00 0.00 47 1014.1
20260507013112 7 280 6.4 14.5 0.00 0.00 0.00 46 1013.9
20260507011554 8 288 1.6 9.7 0.00 0.00 0.00 47 1013.5
20260507010059 8 274 6.4 17.7 0.00 0.00 0.00 46 1013.4
20260507004604 8 264 6.4 16.1 0.00 0.00 0.00 45 1013.2
20260507003052 8 288 4.8 16.1 0.00 0.00 0.00 44 1013.2
20260507001609 9 294 6.4 16.1 0.00 0.00 0.00 43 1012.9
20260507000052 9 290 4.8 16.1 0.00 0.00 0.00 43 1012.8
20260506234554 10 235 8.0 14.5 0.00 0.00 0.00 41 1012.8
20260506233102 10 274 12.9 19.3 0.00 0.00 0.00 41 1012.8
20260506231550 10 280 9.7 17.7 0.00 0.00 0.00 40 1012.6
20260506230056 10 242 6.4 16.1 0.00 0.00 0.00 40 1012.6
20260506224551 10 238 8.0 14.5 0.00 0.00 0.00 40 1012.4
20260506223105 10 294 9.7 17.7 0.00 0.00 0.00 39 1012.3
20260506221551 10 293 11.3 22.5 0.00 0.00 0.00 39 1012.2
20260506220056 11 271 9.7 20.9 0.00 0.00 0.00 38 1012.2
20260506214604 11 268 8.0 19.3 0.00 0.00 0.00 38 1012.0
20260506213051 11 288 3.2 16.1 0.00 0.00 0.00 39 1012.1
20260506211556 11 290 9.7 19.3 0.00 0.00 0.00 38 1012.0
20260506204555 11 279 4.8 16.1 0.00 0.00 0.00 39 1012.0
20260506203100 11 276 3.2 16.1 0.00 0.00 0.00 39 1012.1